Hourly Data Report for September 13, 2003

SHERBROOKE A
QUEBEC

45°26'00.000" N
71°41'00.000" W
241.40 m
7028124
71610
YSC

Download Data

Hourly Data (September 2003)
Hourly Data Report for September 13, 2003
TIME
LST
Temp Definition
°C
Dew Point Definition
°C
Rel Hum Definition
%
Precip. Amount Definition
mm

Wind Dir Definition
10's deg

Wind Spd Definition
km/h
Visibility Definition
km
Stn Press Definition
kPa
Hmdx Definition


Wind Chill Definition


Weather Definition


00:00 9.8 9.0 95     0 15.0 99.83      
01:00 10.0 9.2 95   11 4 8.0 99.84      
02:00 8.8 8.3 97     0 11.3 99.82      
03:00 8.1 7.3 95     0 0.3 99.84      
04:00 6.7 6.0 95     0 2.9 99.85      
05:00 7.6 7.1 97   10 6 11.3 99.90      
06:00 7.2 6.7 97   8 4 4.0 99.95      
07:00 11.5 10.2 92   11 6 24.1 99.96     Mainly Clear
08:00 14.5 11.6 83   7 4 24.1 99.95     Mainly Clear
09:00 18.3 12.0 67   18 6 24.1 99.93     Mainly Clear
10:00 19.9 12.0 60     0 24.1 99.87     Mainly Clear
11:00 21.7 12.2 55   15 6 24.1 99.82     Mostly Cloudy
12:00 22.6 12.7 54   18 7 24.1 99.80 25   Mostly Cloudy
13:00 22.6 12.8 54   19 4 24.1 99.76 25   Mostly Cloudy
14:00 23.6 13.4 53   19 7 24.1 99.73 27   Mostly Cloudy
15:00 24.1 15.4 58   26 7 24.1 99.71 28   Mostly Cloudy
16:00 22.8 15.2 62   25 6 24.1 99.74 27   Mostly Cloudy
17:00 22.0 18.3 80     0 15.0 99.75 28    
18:00 19.6 16.6 83   14 4 15.0 99.75      
19:00 18.2 16.2 88     0 15.0 99.78      
20:00 17.8 15.9 89   22 4 15.0 99.79      
21:00 16.9 15.5 91     0 15.0 99.80      
22:00 16.6 15.5 93     0 15.0 99.79      
23:00 16.3 15.3 94   8 4 15.0 99.77      

Notes on Data Quality.

Legend

  • E = Estimated
  • M = Missing
  • NA = Not Available*
  • [empty] = Indicates an unobserved value
Date modified: